Location: Bailleul
(50.3375°N, 2.8513°E)
Time: 19:39:38
(UTC+00:00)

Spot 2 Rocket - Pass Details

Date: 19 April 2021
Orbit: 756 x 773 km, 98.5° (Epoch: 18 May)

Event Time Altitude Azimuth Distance (km) Brightness Sun altitude
Exits shadow 20:44:16 26° 150° (SSE) 1,480 4.4 -16.4°
Maximum altitude 20:47:09 71° 72° (ENE) 812 3.5 -16.7°
Drops below altitude 10° 20:52:13 10° 349° (N) 2,313 6.8 -17.3°
Sets 20:54:32 0° 347° (NNW) 3,240 7.7 -17.6°
